Location: Howard Springs
(38.8582°N, 122.6747°W)
Time: 03:57:36
(UTC+00:00)

Daily predictions for brighter satellites

Satellite Brightness Start Highest point End
(mag) Time Altitude Azimuth Time Altitude Azimuth Time Altitude Azimuth
Okean O Rocket 1.6 01:39:39 10° SSE 01:44:01 90° SW 01:48:24 10° NNW
H-2A R/B 3.6 01:41:37 10° N 01:45:27 37° WNW 01:49:13 10° SW
Cosmos 1908 4.1 01:42:20 10° SSW 01:46:05 54° W 01:49:52 10° N
Cosmos 1825 Rocket 3.6 01:48:09 10° N 01:52:32 57° E 01:56:52 10° SSE
YAOGAN 1 4.0 01:50:22 10° ESE 01:53:08 17° ENE 01:55:55 10° NNE
Cosmos 2219 4.3 01:48:35 10° N 01:53:14 24° NE 01:57:51 10° ESE
SL-4 R/B 4.2 01:54:51 10° NNW 01:56:15 12° N 01:57:41 10° NNE
Aureole 3 3.8 01:53:40 10° SSE 01:56:34 26° E 01:59:11 10° NE
Cosmos 1892 4.4 01:56:31 10° NE 01:58:39 14° ENE 02:00:46 10° ESE
Hubble Space Telescope 3.7 02:00:08 10° SSW 02:00:39 10° SSW 02:01:10 10° S
Delta 2 Rocket 4.3 01:57:56 10° W 02:03:03 61° S 02:08:24 11° ESE
CZ-2D R/B 4.0 02:00:33 10° SE 02:03:54 30° ENE 02:07:15 10° N
Cosmos 1726 Rocket 3.5 02:00:25 10° S 02:04:42 71° E 02:09:04 10° NNE
CZ-2C R/B 4.1 02:01:30 10° SE 02:06:24 29° ENE 02:11:15 10° N
Cosmos 1110 Rocket 4.4 02:01:33 10° SSW 02:06:47 67° WNW 02:12:00 10° NNE
Cosmos 1300 2.6 02:03:05 10° S 02:06:53 76° E 02:10:41 10° N
Cosmos 1302 Rocket 4.1 02:04:16 10° S 02:09:23 57° ESE 02:14:34 10° NNE
CZ-4B R/B 4.4 02:04:51 10° S 02:10:16 48° W 02:15:38 10° NNW
Cosmos 1758 Rocket 4.0 02:06:06 10° NNW 02:10:28 65° W 02:14:46 10° S
Atlas Centaur 2 4.1 02:04:11 10° SW 02:11:27 33° SSE 02:17:56 13° ESE
Timation 2 Rocket 4.2 02:07:18 10° NNW 02:13:48 55° ENE 02:20:29 10° SE
Okean-O 3.1 02:10:31 10° SE 02:14:34 36° ENE 02:18:38 10° N
Meteor 2-10 Rocket 4.4 02:10:08 10° SSE 02:14:39 28° E 02:19:04 10° NNE
Cosmos 2228 3.7 02:14:00 10° SSW 02:18:08 57° W 02:22:21 10° N
FALCON 9 DEB 3.8 02:15:03 10° WSW 02:18:11 47° NW 02:20:48 14° NE
CZ-4B R/B 3.3 02:15:37 10° N 02:18:29 31° WNW 02:21:18 10° SW
Cosmos 1606 Rocket 4.2 02:15:24 10° SSW 02:19:40 59° W 02:24:01 10° N
ARGOS 4.4 02:18:06 17° E 02:19:53 19° ENE 02:23:38 10° NNE
BREEZE-M TANK 3.9 02:11:57 10° W 02:20:32 44° N 02:23:05 18° ENE
FALCON 9 DEB 4.1 02:21:16 10° WSW 02:24:18 38° NW 02:26:38 15° NNE
NOSS 3-3 (A) 4.4 02:20:05 10° S 02:25:08 35° ESE 02:29:21 16° NE
NOSS 3-3 (C) 4.4 02:20:09 10° S 02:25:16 35° ESE 02:29:28 16° NE
Cosmos 1656 3.7 02:21:28 10° S 02:26:53 60° ESE 02:32:25 10° NNE
MOS 1 Rocket 4.0 02:23:51 10° NNE 02:28:06 33° E 02:32:32 10° SSE
SKYMED 2 3.7 02:24:23 10° N 02:28:43 76° WNW 02:33:03 10° SSW
Cosmos 2227 Rocket 2.8 02:24:33 10° N 02:29:43 35° ENE 02:33:07 19° ESE
Cosmos 44 4.0 02:26:18 10° SW 02:30:36 49° NW 02:35:11 10° NNE
CZ-4 R/B 4.3 02:28:29 10° SSE 02:32:37 76° ENE 02:36:47 10° N
FALCON 9 DEB 4.4 02:31:10 10° WSW 02:34:10 34° NW 02:36:08 17° NNE
CSL-04 Rocket 4.2 02:29:50 10° SE 02:34:50 36° ENE 02:39:49 10° N
Meteor 2-8 Rocket 4.4 02:29:17 10° S 02:35:23 82° E 02:41:32 10° N
Cosmos 1553 Rocket 4.0 02:29:11 10° S 02:35:29 68° E 02:41:45 10° NNE
OAO 3 Rocket 3.9 02:31:28 10° W 02:36:03 45° S 02:38:53 21° SE
Cosmos 1340 2.6 02:34:41 10° N 02:38:26 61° E 02:42:10 10° SSE
Helios 1A Rocket 2.8 02:35:56 10° SSE 02:40:03 82° ENE 02:44:11 10° N
GEOS 3 Rocket 4.3 02:38:25 26° E 02:40:35 36° NE 02:45:27 10° NNW
Cosmos 1939 Rocket 3.3 02:37:06 10° S 02:41:03 62° W 02:44:58 10° NNW
BREEZE-M DEB (TANK) 4.1 02:38:27 10° SSW 02:42:09 55° SE 02:50:32 16° ENE
Cosmos 1697 Rocket 3.0 02:39:13 10° S 02:44:28 43° ESE 02:47:49 21° NE
ASTRO E2 4.3 02:42:23 10° SW 02:45:23 21° SSE 02:46:10 20° SSE
Cosmos 2058 Rocket 3.7 02:44:57 10° SSW 02:49:21 59° W 02:53:48 10° N
H-2A R/B 2.4 02:44:17 10° SE 02:49:23 47° ENE 02:54:36 10° N
Cosmos 1992 Rocket 4.0 02:45:30 10° S 02:50:32 53° ESE 02:54:08 19° NNE
Cosmos 220 Rocket 4.0 02:46:21 10° S 02:50:33 53° ESE 02:52:04 35° NE
Cosmos 1455 3.1 02:52:42 10° S 02:54:54 32° SSE 02:54:54 32° SSE
Meteor 2-15 Rocket 4.4 02:50:45 10° S 02:56:47 61° E 03:02:50 10° NNE
CZ-4 R/B 1.6 02:57:46 10° S 03:01:41 68° W 03:05:32 10° NNW
Aureole 3 Rocket 4.3 02:59:29 10° SSW 03:02:53 39° WNW 03:07:19 10° N
Cosmos 2058 3.1 02:59:47 10° N 03:03:08 51° NE 03:03:08 51° NE
SL-08 R/B 4.5 02:58:32 10° N 03:04:43 83° W 03:10:49 10° S
Cosmos 1745 Rocket 3.9 02:59:08 10° N 03:05:26 71° E 03:11:45 10° SSE
Cosmos 44 Rocket 4.4 03:01:46 10° S 03:04:22 27° SSE 03:04:22 27° SSE
Cosmos 1980 Rocket 3.4 03:01:24 10° SSE 03:04:11 25° SE 03:04:11 25° SE
Geosat 4.3 03:02:05 10° NNE 03:07:05 68° WNW 03:12:03 10° SW
Meteor 2-15 4.5 03:03:51 10° S 03:09:59 82° W 03:16:10 10° N
Cosmos 2297 Rocket 2.1 03:04:20 10° NNW 03:10:02 89° WSW 03:14:00 20° SSE
CSL-04 Debris 4.0 03:07:41 10° SSE 03:13:05 82° ENE 03:18:34 10° NNW
Cosmos 2360 4.1 03:11:04 10° S 03:16:43 63° ESE 03:17:41 54° ENE
Cosmos 1386 Rocket 4.4 03:16:05 10° N 03:22:31 89° W 03:28:50 10° S
OAO 2 Rocket 3.7 03:21:18 10° WSW 03:25:44 49° S 03:25:44 49° S
YAOGAN 1 3.8 03:24:49 10° S 03:28:53 40° W 03:32:59 10° NNW
SeaSat 1 3.0 03:31:00 47° N 03:31:00 47° N 03:34:40 10° NNW
Cosmos 2278 4.5 03:26:50 10° S 03:30:21 38° S 03:30:21 38° S
Cosmos 1892 4.3 03:30:55 10° NNW 03:34:26 34° W 03:36:35 19° SW
Cosmos 1709 Rocket 3.9 03:29:05 10° N 03:35:19 69° ENE 03:35:19 69° ENE
Cosmos 1315 Rocket 4.2 03:33:24 10° SSW 03:36:07 35° WSW 03:36:07 35° WSW
Cosmos 2219 4.1 03:32:06 10° NNW 03:37:38 49° WSW 03:42:03 16° S
Cosmos 1346 Rocket 4.4 03:37:05 10° NNW 03:39:31 31° NW 03:39:31 31° NW
Cosmos 2315 Rocket 4.3 03:39:56 10° S 03:49:08 33° N 03:52:22 10° N
Cosmos 968 Rocket 4.2 03:42:32 10° NNW 03:47:35 51° WSW 03:48:28 46° SW
Cosmos 2082 4.0 03:41:53 10° NNW 03:46:30 59° NNW 03:46:30 59° NNW
Cosmos 2369 4.3 03:49:51 10° SW 03:55:27 56° WNW 03:56:29 49° NNW
ARGOS 3.7 03:59:38 54° WSW 03:59:41 54° W 04:05:00 10° NNW
Atlas Centaur 2 3.5 03:52:38 10° WSW 04:00:32 46° S 04:00:32 46° S
Milstar 3 3.8 04:03:04 10° WSW 04:08:19 35° SSW 04:08:19 35° SSW
Cosmos 2227 Rocket 3.8 04:08:45 10° NW 04:13:38 31° WSW 04:15:02 27° SW
USA 215 4.2 04:17:13 36° N 04:17:13 36° N 04:21:29 10° NW
H-2A R/B 4.4 04:25:00 10° SW 04:29:00 21° W 04:33:05 10° NW
ATLAS 2AS CENTAUR R/B 4.2 04:25:19 10° NNW 04:29:06 29° N 04:29:06 29° N
Cosmos 2344 3.8 11:37:02 57° N 11:37:02 57° N 11:43:23 10° NNE
ADEOS Rocket 3.7 11:41:35 10° SE 11:46:46 44° ENE 11:51:59 10° N
ISS -0.3 11:52:01 11° ENE 11:52:01 11° ENE 11:52:11 10° ENE
